Theta_e
316 316 315 315 315 314 314 314 314 313 312 312 312 312 312 312 311 310 309 308 309 310 311 312 313 313 314 314 314 313 313 313 313 312 311 311 310 309 309 307 306 306 305 305 305 305 305 305 305 305 306 306 306 306 306 307 307 307 308 308 308 308 308 307 307 306 305 305 304 304 304 304 304 304 304 304 303 303 303 303 303 303 303 303 304 304
314 314 314 314 314 314 314 314 313 313 312 312 312 312 311 311 310 309 309 308 309 309 311 312 312 313 313 313 313 312 312 312 312 311 311 310 310 309 307 306 305 305 305 304 304 304 304 304 305 305 306 306 306 306 306 306 307 307 307 307 307 306 306 305 305 304 303 303 303 302 303 303 303 303 303 303 303 302 302 302 302 302 302 302 303 303
313 313 313 313 313 313 313 313 312 312 311 311 311 311 311 310 309 308 308 308 309 309 310 311 312 312 312 311 311 311 311 311 311 311 310 309 309 307 306 305 305 304 304 304 304 304 304 304 304 304 305 305 305 305 305 305 305 305 305 305 305 304 304 303 303 302 302 301 301 301 301 301 302 302 302 302 302 301 301 301 301 301 302 302 302 303
312 311 312 312 312 312 312 311 311 310 309 309 309 309 309 308 308 308 308 308 309 309 310 310 311 311 311 310 310 309 309 309 310 310 309 308 307 306 305 305 304 304 304 303 303 303 303 303 303 303 303 303 303 303 303 303 303 303 303 303 303 302 302 302 301 301 301 301 301 301 301 301 301 301 301 301 301 301 301 301 301 301 301 301 301 302
311 311 311 310 310 309 310 310 309 308 308 307 307 307 307 307 307 307 307 308 308 309 309 310 310 310 310 309 309 308 308 308 308 308 308 307 306 305 304 304 303 303 303 303 303 302 302 302 302 302 302 302 302 302 302 302 302 302 302 302 301 301 301 301 300 300 301 300 300 301 300 300 300 301 301 301 300 300 300 300 300 300 300 300 301 301
311 310 309 309 309 308 307 307 307 307 306 306 306 305 305 306 306 306 307 307 308 309 309 309 309 309 309 309 308 307 307 307 307 307 306 305 305 304 303 303 303 302 302 302 302 302 301 301 301 301 301 301 301 301 301 301 301 301 301 301 300 300 300 300 300 300 300 300 300 300 300 300 300 300 300 300 300 300 299 299 299 299 299 299 300 300
310 309 308 307 307 307 306 306 306 306 306 305 304 304 304 305 305 306 306 307 308 308 308 308 308 308 308 308 307 306 305 305 305 305 305 304 303 303 302 302 302 302 301 301 301 301 300 300 300 300 300 300 300 300 300 300 300 300 300 300 299 299 299 299 299 299 299 299 299 299 299 299 299 299 299 299 299 299 299 298 298 298 298 298 298 299
309 307 306 306 305 305 305 305 304 305 305 305 304 304 303 304 304 305 305 306 307 307 307 307 307 307 306 306 306 305 304 304 304 304 303 303 302 302 301 301 301 301 301 300 300 300 299 299 298 298 298 298 298 298 299 299 299 299 299 299 299 299 299 299 299 299 299 299 299 299 298 298 298 298 297 297 297 297 297 297 297 297 297 297 297 297
308 306 304 304 305 305 304 303 303 303 304 304 304 303 302 302 303 304 304 305 306 306 306 306 306 305 305 305 304 304 303 303 303 303 302 302 301 301 301 300 300 300 300 300 299 299 298 298 297 297 297 297 297 297 297 298 298 298 298 297 297 297 297 297 297 297 297 296 296 296 296 295 295 295 294 294 294 294 294 295 295 296 296 296 296 297
308 306 304 304 304 305 304 303 302 302 302 303 303 303 302 301 301 302 302 303 304 305 305 305 305 304 304 304 303 303 302 302 302 302 301 301 301 300 300 300 300 299 299 299 298 298 297 297 297 296 296 296 296 296 297 297 296 296 295 294 294 293 293 293 293 293 292 292 292 291 291 291 291 290 290 290 290 290 291 293 294 295 295 295 296 296
307 305 304 303 302 303 303 303 302 301 301 301 301 301 301 301 301 301 300 301 302 303 303 304 304 304 303 303 302 302 302 301 301 300 300 300 300 300 300 300 299 299 299 298 298 297 297 296 296 296 295 295 295 295 295 294 293 292 291 290 289 289 289 288 288 288 288 287 287 288 288 288 288 288 287 287 287 287 289 291 293 294 294 295 295 295
306 304 303 302 301 301 301 302 301 300 300 300 300 299 299 300 301 301 300 300 300 301 302 302 303 303 302 302 302 302 301 301 300 300 300 300 300 300 300 299 299 299 298 298 297 297 296 296 295 295 295 295 295 294 293 292 290 289 288 287 287 287 286 286 285 285 285 285 286 287 287 288 288 288 287 287 286 287 288 290 292 293 293 294 294 295
305 304 303 302 301 300 300 300 299 299 299 299 299 299 299 299 300 300 301 300 300 300 301 301 301 301 301 301 301 301 301 300 300 300 300 299 299 299 299 299 299 298 298 297 296 296 296 295 295 294 294 294 294 293 292 290 289 288 287 287 286 286 285 285 284 284 284 285 286 287 288 288 289 289 289 288 287 287 288 290 291 292 293 293 294 294
304 303 302 301 300 300 299 298 298 298 298 299 299 300 299 299 299 299 300 299 299 299 300 300 300 300 300 300 301 301 300 300 300 300 299 299 299 299 299 299 299 298 297 297 296 295 295 295 294 294 294 294 293 293 291 290 288 288 287 287 286 285 285 285 285 285 285 286 287 288 289 289 290 290 290 289 289 289 289 289 291 292 292 293 293 293
303 302 301 300 300 299 298 298 298 299 299 299 300 300 299 299 298 299 299 298 298 298 299 299 299 299 298 299 299 300 300 300 299 299 299 299 299 299 299 299 298 297 297 296 296 295 294 294 294 294 294 294 293 292 291 289 288 288 287 287 286 285 285 285 286 286 286 286 287 288 289 289 290 290 290 290 290 289 289 289 290 291 292 292 293 293
303 302 301 301 300 300 299 298 299 299 299 299 299 299 299 298 298 298 298 298 297 297 297 297 297 297 297 298 298 299 299 299 299 299 299 299 299 299 298 298 298 297 296 296 295 295 294 294 294 294 294 294 293 292 290 289 288 288 287 286 285 285 286 287 287 287 286 287 287 288 289 289 290 290 291 291 290 290 289 290 290 291 291 292 292 293
303 302 302 302 301 300 299 298 299 300 300 299 299 299 299 298 298 298 298 297 296 296 296 297 297 296 296 296 297 298 298 298 298 298 298 298 298 298 298 298 297 297 296 295 295 295 294 294 294 294 294 293 292 291 290 289 288 287 287 286 285 286 287 287 287 287 287 287 288 288 289 289 290 290 290 290 290 290 290 290 290 290 291 291 292 292
304 303 302 302 302 301 300 298 299 299 299 299 299 299 299 299 299 298 298 297 296 296 296 297 297 297 297 296 296 296 297 298 297 297 297 297 297 297 297 297 297 296 295 295 295 294 294 294 294 294 293 292 291 290 289 288 288 287 286 285 286 287 288 288 288 288 287 287 288 288 289 289 290 290 290 290 290 290 290 290 290 290 290 291 291 291
304 303 303 303 303 302 301 299 299 299 299 299 299 299 299 298 298 298 298 297 297 296 297 297 298 298 298 297 296 296 297 297 297 296 295 295 295 296 296 296 296 295 295 294 294 294 294 294 293 293 292 292 291 290 289 288 287 287 286 286 286 287 288 288 288 288 288 288 288 288 289 289 290 290 290 290 290 290 290 290 290 290 290 290 290 291
304 303 303 303 303 303 302 300 299 299 299 299 299 299 299 298 298 298 297 297 297 297 297 297 297 298 298 298 297 296 296 297 296 296 295 293 293 294 295 295 295 294 294 294 294 294 294 293 293 292 291 291 290 289 288 288 287 286 285 287 288 288 288 288 288 288 288 288 288 288 289 289 289 290 290 290 290 290 289 289 289 289 290 290 290 290
303 303 303 303 303 303 302 301 300 300 300 300 299 299 299 298 298 297 297 297 297 297 297 297 297 298 298 298 297 296 296 296 296 295 294 293 292 292 293 294 294 294 293 293 293 293 293 293 292 291 291 290 289 289 288 287 287 286 286 287 288 288 289 289 289 288 288 288 288 288 289 289 289 289 290 290 290 290 289 289 289 289 289 289 289 290
303 303 303 303 303 303 303 302 301 301 301 300 300 299 299 298 298 297 297 297 296 296 297 297 298 297 297 297 297 297 296 296 296 295 294 292 291 291 292 293 293 293 293 293 293 293 292 292 291 290 290 289 289 288 288 287 286 286 287 288 288 289 289 289 289 289 288 287 287 288 289 289 289 289 289 290 289 289 289 289 289 289 289 289 289 289
302 303 303 303 303 303 303 303 302 301 301 301 300 300 299 298 298 298 297 297 296 296 296 296 296 296 296 297 297 296 295 295 296 295 294 292 291 290 291 292 292 292 292 292 292 292 292 291 290 290 289 289 288 288 287 286 286 286 287 288 288 289 289 289 289 288 288 287 287 288 289 289 289 289 289 289 289 289 289 289 289 289 289 289 289 289
302 302 302 303 303 303 303 303 302 302 301 301 301 300 300 299 299 298 298 297 297 296 295 295 294 294 295 295 295 295 295 295 295 295 294 293 291 290 291 291 291 290 290 291 292 292 291 290 290 289 289 288 288 287 287 286 286 286 287 288 288 289 289 289 289 288 287 287 287 289 289 289 289 289 289 289 289 289 289 289 289 289 289 289 289 289
301 301 302 302 302 302 303 303 303 302 301 301 300 300 299 299 298 298 297 297 296 295 294 293 292 291 292 292 293 293 294 294 294 294 294 293 291 290 291 291 290 289 289 290 290 290 290 290 289 289 289 288 287 287 286 285 286 286 287 288 288 288 289 289 289 288 287 287 288 289 289 289 289 288 288 288 288 288 288 288 288 288 288 288 288 289
300 300 301 301 301 302 302 302 302 302 302 301 300 300 299 298 298 297 296 295 295 294 293 292 291 290 289 290 290 292 293 293 293 294 294 292 289 288 290 290 290 289 288 288 288 289 289 289 289 289 288 288 287 286 285 285 285 286 287 287 288 288 289 289 289 288 287 287 288 289 289 289 288 288 288 288 288 288 288 288 288 288 288 288 288 288
299 299 300 300 301 301 301 302 302 302 301 301 300 300 299 298 297 296 295 294 293 293 293 293 291 290 288 288 289 290 292 292 293 293 293 292 289 288 288 289 290 289 288 287 287 288 288 288 288 288 288 287 286 285 284 284 285 286 286 287 288 288 289 289 289 288 287 288 288 289 289 289 288 288 288 288 288 287 287 287 287 287 287 287 287 288
298 299 299 300 300 300 301 301 301 301 301 300 300 300 299 298 296 295 293 293 293 293 293 293 292 290 289 289 289 290 291 291 292 292 292 292 290 288 288 288 289 288 287 287 286 286 287 287 287 287 287 286 285 285 284 284 284 285 286 286 287 288 289 289 289 288 288 288 288 289 289 289 288 288 288 288 288 287 287 287 287 287 287 287 288 288
298 299 299 299 299 300 300 300 300 300 300 299 299 299 299 298 297 295 294 294 293 293 294 294 293 291 290 289 288 288 289 290 291 291 291 291 290 288 288 288 288 287 287 286 285 285 285 285 286 286 286 285 285 284 284 284 284 284 285 285 286 287 288 289 289 289 288 288 289 289 289 289 288 288 288 288 288 288 287 287 287 287 287 288 288 288
298 298 298 298 299 299 299 299 299 299 299 299 299 299 298 298 298 297 295 294 294 294 294 294 293 291 289 288 287 287 288 289 290 291 291 290 289 287 287 287 287 287 287 286 285 284 284 285 285 285 285 284 284 284 284 284 284 283 284 284 285 287 288 289 289 289 289 289 289 289 289 289 289 288 288 288 288 288 287 287 287 287 288 288 288 288
297 297 297 297 297 297 298 298 298 298 298 298 298 298 297 297 297 297 296 295 294 294 294 294 293 291 289 289 288 288 288 289 289 290 290 290 289 287 287 286 286 286 287 287 285 284 284 284 284 284 284 284 284 284 284 284 284 284 283 283 284 286 288 289 289 289 289 289 289 289 289 289 289 288 288 288 288 288 287 287 287 287 288 288 288 288
296 296 296 296 296 297 297 297 297 297 297 296 296 296 296 296 296 296 295 295 294 294 294 293 292 291 290 290 291 291 290 290 290 290 290 290 288 287 287 286 285 286 287 287 287 285 284 284 284 284 284 284 284 284 284 284 284 283 283 283 284 286 288 289 289 289 289 289 289 289 288 288 288 288 288 288 287 287 287 287 287 287 288 288 288 288
295 295 295 296 296 296 296 296 296 296 296 295 295 295 295 295 295 295 295 295 295 294 294 293 292 291 291 291 292 292 291 291 291 290 290 289 288 287 286 286 285 285 286 286 287 286 285 284 284 284 284 284 284 284 284 284 284 283 284 284 285 286 288 289 289 289 289 288 288 288 288 288 288 287 287 287 286 286 286 286 286 286 287 288 288 288
294 294 295 295 295 295 295 295 295 295 295 294 294 294 294 294 294 294 294 294 294 294 294 294 293 292 291 291 291 291 290 291 291 291 290 289 288 287 286 286 285 285 285 285 286 286 285 285 284 284 284 284 284 284 284 284 284 284 284 285 286 287 288 289 289 288 288 288 288 288 287 287 287 286 286 285 285 284 284 284 284 285 285 286 287 288
293 293 293 294 294 294 294 294 294 294 294 294 293 293 293 293 293 293 293 293 293 293 294 294 294 293 292 291 291 290 290 291 291 291 290 289 289 288 286 286 285 285 285 285 286 286 285 285 284 284 284 284 284 284 284 284 284 285 286 286 287 288 288 289 288 288 288 288 287 287 287 286 286 285 284 284 284 284 284 283 283 283 284 284 285 286
292 292 292 293 293 293 293 293 293 293 293 293 293 293 292 292 292 292 292 292 293 293 293 293 293 293 293 293 292 292 292 292 292 291 290 290 290 289 287 286 286 286 285 285 286 286 285 285 284 284 284 284 284 284 284 284 284 286 287 287 287 288 288 288 288 288 288 287 287 287 287 286 285 285 284 284 284 284 284 284 284 284 283 283 283 284
292 291 291 291 292 292 292 291 291 291 291 291 292 292 292 292 292 292 292 292 292 292 292 292 292 292 293 293 293 294 294 293 292 291 290 290 290 289 288 287 286 286 285 285 285 286 285 285 284 284 284 284 284 284 284 284 285 286 287 288 288 288 288 288 288 288 288 287 287 287 286 286 285 285 284 284 284 284 285 285 285 284 284 283 283 283
291 291 290 290 291 290 290 290 290 290 290 290 290 291 291 291 291 291 292 292 292 292 292 292 292 291 291 292 292 292 293 292 292 291 290 290 290 289 289 288 287 286 286 286 286 286 285 285 285 284 284 284 284 284 284 284 285 286 287 287 287 288 288 287 287 287 287 287 286 286 286 286 285 285 285 285 285 285 285 285 285 284 284 283 283 283
290 290 290 290 290 290 289 289 289 289 289 289 290 290 290 290 291 291 291 291 291 291 291 291 291 290 290 290 290 290 290 290 290 290 289 289 289 289 289 288 287 286 285 285 286 286 286 285 285 285 284 284 284 284 284 284 285 286 286 287 287 287 287 287 287 287 286 286 286 286 285 285 285 285 285 285 285 285 285 285 284 284 283 283 283 282
290 290 289 289 289 289 289 288 288 288 288 289 289 289 289 289 289 289 290 290 290 290 290 290 290 290 289 289 289 288 288 288 288 288 288 288 288 288 288 288 287 286 285 285 285 285 286 286 285 285 285 285 285 284 284 284 285 285 286 285 285 285 286 286 286 286 286 286 286 285 285 285 285 285 285 285 285 285 285 284 283 283 282 282 282 282
290 289 289 289 289 288 288 288 288 288 288 288 288 288 288 288 288 288 288 288 288 289 289 289 289 289 288 288 287 287 287 287 287 287 287 287 287 287 287 287 287 286 285 284 285 285 285 285 285 285 285 285 285 285 285 284 284 285 285 285 285 285 285 286 286 286 286 286 286 286 286 285 285 285 285 285 285 284 284 283 282 282 282 282 282 282
290 289 289 289 288 288 287 287 287 287 287 287 287 287 287 287 287 287 287 287 287 287 288 288 288 287 286 286 286 285 285 285 286 286 286 286 286 286 286 286 286 285 285 284 284 285 285 285 285 285 285 286 285 285 285 285 285 285 285 285 285 285 285 285 286 286 286 286 286 286 286 285 285 285 285 285 284 284 283 282 282 282 282 282 282 282
290 289 289 288 288 287 287 287 286 286 286 286 286 286 287 287 287 287 286 286 286 286 286 287 287 286 285 284 284 284 284 284 285 285 285 285 285 285 285 285 285 285 284 284 284 284 285 285 285 285 285 285 285 285 285 285 285 285 285 285 285 285 285 285 285 285 285 285 285 285 285 285 284 284 284 283 283 282 282 282 282 282 282 282 282 282
289 289 288 288 287 287 286 286 286 286 286 285 285 285 285 286 286 286 286 285 285 285 285 285 285 285 284 283 283 283 283 284 284 284 284 284 284 284 284 284 284 284 284 284 284 284 284 285 285 285 285 285 285 285 285 285 284 284 284 284 285 285 284 284 284 284 284 284 284 284 284 283 283 283 282 282 282 282 282 282 282 282 282 282 282 282
288 288 287 287 287 286 286 285 285 285 285 285 285 285 285 285 285 285 285 284 284 284 284 284 284 283 282 282 282 282 283 283 283 283 283 284 284 284 284 284 284 284 284 284 284 284 284 285 285 285 285 285 285 285 285 285 284 284 284 284 284 284 284 284 284 284 284 283 283 283 283 283 282 282 281 281 281 281 282 282 282 282 282 282 282 282
287 287 286 286 286 286 285 285 285 285 285 284 284 284 284 284 284 284 284 284 283 283 283 283 283 282 281 281 281 282 282 282 283 283 283 283 283 283 283 284 284 284 284 284 284 284 284 284 285 285 285 285 285 285 285 284 284 284 284 284 284 284 284 284 283 283 283 283 283 283 283 282 282 281 281 281 281 282 282 282 282 282 282 282 282 282
286 286 286 286 286 285 285 285 285 285 284 284 284 284 284 284 284 284 284 283 283 282 282 282 282 282 281 281 281 281 281 281 282 282 282 282 282 283 283 283 283 283 283 283 283 283 284 284 284 284 285 284 284 284 284 284 284 284 284 284 284 284 283 283 283 283 283 283 283 283 283 282 282 281 281 281 282 282 282 282 282 282 282 282 282 282
286 286 285 285 285 285 285 285 285 284 284 284 284 284 284 284 284 283 283 283 283 282 282 282 282 281 281 281 281 281 281 281 281 281 282 282 282 282 282 282 282 282 283 283 283 283 283 283 284 284 284 284 284 284 284 284 284 284 284 284 283 283 283 283 283 283 283 283 283 283 283 282 282 282 282 282 282 282 282 282 282 282 282 282 282 283
286 285 285 285 285 285 285 285 284 284 284 284 284 284 284 284 284 283 283 283 283 282 282 282 282 281 281 281 281 281 281 281 281 281 281 281 281 281 281 281 282 282 282 282 282 283 283 283 283 283 283 283 284 284 284 284 284 284 284 284 283 283 283 283 283 283 283 283 283 282 282 282 282 282 282 282 282 282 282 282 282 282 282 283 283 283
286 285 285 285 285 285 285 284 284 284 284 284 284 283 284 284 284 284 283 283 283 283 283 282 282 282 281 281 281 281 281 280 280 280 281 281 281 281 281 281 281 281 282 282 282 282 282 282 282 283 283 283 283 283 283 283 283 283 284 284 284 283 283 283 283 283 283 283 282 282 282 282 282 282 282 282 282 282 282 282 282 283 283 283 283 283
286 285 285 285 285 285 285 284 284 284 284 284 284 283 283 284 284 283 283 283 283 283 283 283 282 282 282 281 281 281 281 281 280 280 280 281 281 281 281 281 281 281 281 281 281 281 282 282 282 282 282 282 282 282 283 283 283 283 283 283 283 283 283 283 283 283 283 283 282 282 282 282 282 282 282 281 281 282 282 282 282 283 283 283 283 283
Wind_Speed
16 16 16 16 15 15 15 15 14 14 14 14 13 13 11 11 12 14 17 20 21 20 19 19 20 22 24 25 26 25 25 24 23 20 18 16 14 13 11 10 9 8 7 7 7 8 8 9 9 9 9 9 9 8 8 8 7 7 7 8 9 10 10 11 11 11 10 10 9 8 8 8 8 8 8 7 7 6 6 5 5 5 4 4 4 4
16 16 16 16 16 15 15 16 16 15 14 14 14 14 13 13 14 15 18 20 21 21 20 19 20 22 24 25 25 25 25 23 22 20 18 16 14 12 11 9 9 8 8 9 9 10 11 11 12 12 12 12 12 12 12 13 13 12 13 13 13 13 14 13 13 12 12 11 10 9 9 9 9 9 8 8 7 7 6 5 5 5 4 4 4 3
16 16 16 17 17 16 15 16 16 15 14 14 14 14 14 14 15 17 19 20 21 21 21 20 21 22 24 24 24 24 23 22 21 20 18 16 14 12 11 10 9 9 10 10 11 11 12 12 13 13 13 13 13 13 14 14 14 14 14 14 15 15 14 14 13 12 12 11 11 10 10 9 9 9 8 8 7 6 6 6 5 5 5 5 5 4
16 16 17 17 17 16 16 16 15 15 14 14 14 14 14 15 17 18 19 21 21 21 21 21 21 23 24 24 23 22 21 21 20 19 17 15 14 12 11 11 10 10 11 11 12 12 13 13 13 13 13 14 14 14 14 14 14 14 13 13 13 13 13 13 12 12 11 11 11 10 10 9 9 8 8 7 7 6 6 6 6 5 5 6 5 4
16 17 17 17 16 16 16 16 15 15 15 15 15 15 15 17 18 19 20 21 21 21 21 21 22 23 24 24 22 21 20 19 19 18 16 15 14 13 12 11 11 11 12 12 13 13 13 13 13 13 13 13 13 14 14 14 14 13 13 12 12 12 11 11 11 11 11 11 11 10 9 9 8 8 7 7 7 6 6 6 6 6 6 6 6 5
16 17 17 17 16 16 16 16 16 16 16 16 16 17 17 18 19 20 20 21 21 21 21 21 22 23 24 24 22 20 19 18 17 17 15 14 13 13 12 12 12 12 12 13 13 14 14 14 13 13 13 13 13 13 13 14 13 13 12 12 11 11 11 11 11 11 11 10 10 10 9 9 8 8 8 7 7 7 7 7 6 6 6 6 6 6
15 16 16 16 17 17 16 17 17 18 18 18 18 18 18 19 20 20 21 21 21 21 21 22 22 23 23 23 21 20 18 17 16 16 14 14 13 13 13 12 12 12 12 13 13 14 14 13 13 13 13 12 12 12 12 12 12 12 11 11 11 11 11 11 11 11 11 11 11 10 10 10 10 10 9 9 9 9 8 8 7 6 5 6 6 7
14 15 16 17 18 17 17 17 18 18 19 19 19 19 18 18 19 20 20 20 20 21 22 22 23 23 23 22 21 20 19 17 16 15 14 14 13 13 13 12 12 13 13 13 13 13 13 13 13 12 12 12 11 11 11 11 11 11 11 11 11 11 11 11 12 12 12 12 12 12 12 12 12 12 12 12 11 11 10 9 8 6 5 5 5 6
15 15 17 19 19 18 17 17 18 19 19 20 20 19 18 18 18 19 20 19 20 21 22 23 23 23 22 21 20 19 18 18 17 16 15 15 15 14 13 13 13 13 13 13 13 13 13 13 12 12 11 11 11 11 11 11 11 11 11 11 11 12 12 12 12 13 13 13 13 13 13 13 13 13 13 12 12 12 11 10 9 7 6 5 5 5
19 17 17 19 20 19 18 16 17 19 20 20 19 19 19 18 18 18 18 18 19 21 23 24 24 24 23 21 20 19 18 17 16 16 16 16 15 15 14 13 13 14 14 14 13 13 13 12 12 11 11 11 11 11 11 10 10 10 10 10 11 11 11 12 12 12 12 12 12 12 12 12 12 12 11 11 11 11 11 11 10 9 7 6 5 5
18 18 17 17 18 18 18 17 18 19 20 19 19 19 19 20 20 19 17 18 19 21 23 24 25 25 24 23 22 21 20 18 17 16 16 15 15 15 14 14 14 15 15 14 14 13 13 12 12 11 11 11 11 10 9 8 8 8 8 8 9 9 9 10 10 10 9 9 9 9 8 8 8 8 8 8 9 9 10 11 11 10 9 7 6 5
16 16 16 16 16 16 16 17 19 20 20 18 16 15 16 20 21 21 19 19 20 21 22 24 25 25 25 24 24 23 22 21 20 18 17 16 15 15 15 15 15 16 15 15 14 13 12 12 12 12 11 11 10 9 7 6 5 5 6 6 6 7 7 7 7 7 7 7 6 6 6 5 5 4 5 5 6 8 9 10 11 11 10 9 7 6
16 16 16 16 16 16 16 16 17 19 19 18 16 15 16 19 21 21 20 20 21 22 23 23 23 24 25 25 25 25 24 23 22 21 19 18 17 16 16 17 17 18 17 16 15 14 13 12 12 12 11 10 9 7 6 5 4 4 5 5 5 5 5 5 5 5 5 6 6 6 5 5 4 3 3 3 4 6 8 10 11 11 11 9 8 7
15 15 15 14 15 16 17 18 18 17 18 18 19 18 18 20 21 20 19 19 20 22 23 22 21 21 22 23 25 25 25 25 23 22 21 20 19 19 19 19 20 20 19 18 17 15 14 14 13 13 12 10 9 7 5 5 4 5 5 5 4 4 4 4 4 4 5 6 6 6 6 5 5 4 3 3 4 5 7 8 10 10 10 9 8 7
14 14 13 12 13 15 17 18 19 19 19 20 20 19 18 19 20 20 18 17 19 21 22 21 20 19 18 21 23 24 25 25 24 23 22 22 21 21 21 21 22 21 21 20 19 18 16 15 15 14 12 10 9 7 6 5 5 5 5 4 4 3 3 3 4 4 5 6 7 7 7 6 5 5 4 4 4 5 6 8 9 10 10 9 9 8
15 14 13 13 14 15 17 19 19 19 19 20 19 18 17 18 19 20 19 18 19 20 20 18 15 14 15 19 23 24 25 25 24 24 24 23 23 23 23 23 23 23 22 21 20 19 18 17 16 14 12 10 9 7 7 6 6 5 5 4 3 3 4 4 4 4 5 6 7 7 7 6 6 6 5 5 5 6 7 8 9 9 9 9 9 9
16 16 15 15 15 15 17 19 20 19 19 19 20 20 20 20 20 20 20 20 20 20 19 17 13 9 10 15 20 24 25 25 24 24 24 24 24 24 25 25 25 24 23 22 21 20 19 18 16 14 12 10 9 8 7 7 6 6 5 4 3 4 5 5 4 4 5 6 7 7 7 7 7 6 6 5 6 6 7 8 9 9 9 9 10 10
16 17 17 16 16 16 17 18 19 19 19 20 20 20 21 21 22 22 22 22 21 19 19 18 15 11 9 11 18 24 26 26 24 23 23 24 24 25 26 26 26 25 24 23 22 21 19 18 16 14 12 10 9 8 8 7 7 6 5 4 4 5 5 5 5 5 5 6 7 7 7 7 7 7 6 6 6 6 7 8 9 9 9 9 10 10
17 18 18 18 17 17 17 19 20 20 20 20 20 20 20 20 22 23 23 22 22 21 20 18 18 17 15 14 20 26 28 27 24 22 21 21 23 25 26 26 25 25 24 23 22 21 19 17 16 14 12 10 9 9 8 8 7 6 5 5 5 6 6 6 5 5 5 6 7 8 7 7 7 7 6 6 6 6 7 8 8 9 9 9 10 10
18 19 20 19 18 18 18 20 21 22 22 22 22 21 20 21 21 22 23 23 23 22 21 20 19 18 17 17 22 27 29 28 24 21 19 20 22 24 25 25 25 24 24 23 22 20 19 17 15 14 12 10 10 9 9 8 7 6 6 6 7 7 7 6 6 5 6 6 7 7 7 7 7 7 7 6 6 6 6 7 7 8 8 9 9 10
19 20 21 21 19 18 18 20 23 25 25 24 23 22 21 21 21 22 22 22 22 22 21 19 18 18 18 19 22 26 30 29 25 21 18 17 19 22 24 25 24 24 24 23 22 20 19 17 15 13 12 11 10 9 9 8 7 7 7 7 8 8 7 7 6 6 6 6 7 7 7 7 7 7 7 7 6 6 6 6 7 7 8 8 9 9
19 19 20 21 21 21 20 21 23 25 26 26 25 24 22 22 22 22 23 22 22 21 19 19 19 18 19 20 22 26 30 30 27 22 17 14 15 20 24 24 23 23 23 23 22 20 18 16 14 13 11 11 10 10 9 8 8 8 8 8 8 8 8 7 7 7 6 7 7 8 7 7 7 8 8 8 8 7 7 7 7 7 7 8 8 9
20 19 18 19 21 22 22 21 22 24 26 27 27 27 26 25 24 24 24 23 22 21 21 20 20 19 18 19 21 24 28 29 27 23 18 14 14 18 23 24 23 21 21 22 21 19 18 16 14 12 11 11 11 10 10 9 9 9 9 9 9 9 8 8 7 7 6 7 7 8 8 8 8 8 9 9 9 8 8 8 7 7 7 8 8 8
22 21 18 18 19 21 21 21 21 23 25 26 27 27 26 26 26 25 25 24 24 23 23 22 19 17 16 17 20 24 28 29 28 23 18 14 15 19 24 25 22 20 19 19 19 18 17 15 13 12 12 11 11 10 10 10 10 10 10 10 10 9 9 8 8 7 7 7 8 8 8 8 8 9 9 9 9 9 8 8 7 7 7 7 8 8
25 23 21 18 18 18 20 20 21 22 23 25 26 26 25 25 24 23 23 24 24 23 22 19 15 13 15 18 21 25 28 30 28 24 19 15 15 19 24 25 23 20 17 17 17 16 15 14 13 13 12 11 11 11 10 10 11 11 10 10 10 9 9 8 8 7 7 8 8 9 9 9 9 9 9 9 9 8 8 8 8 7 7 7 8 8
26 25 23 20 18 17 18 19 19 20 22 24 26 27 26 25 23 22 21 22 22 22 20 16 13 12 14 17 20 24 28 30 29 25 21 16 15 18 22 25 24 21 17 16 16 15 14 13 13 13 12 12 11 11 11 11 12 12 11 10 10 9 9 9 8 7 7 8 9 9 9 9 8 8 8 8 8 8 8 8 8 8 8 7 7 8
26 25 23 21 18 16 16 17 18 19 21 23 25 27 26 25 23 21 21 22 23 23 19 14 10 10 11 13 16 21 27 29 28 26 22 19 17 17 21 24 24 21 18 16 14 13 13 13 13 13 13 12 12 12 12 12 13 12 12 11 10 9 9 9 8 8 8 9 9 9 9 9 8 8 7 7 7 7 7 7 8 8 7 7 6 6
24 23 22 20 18 16 15 16 16 18 20 22 24 25 26 25 24 22 21 23 24 23 20 16 11 8 9 10 14 19 26 28 27 25 23 20 16 16 21 24 23 21 18 15 13 12 11 12 12 13 13 13 13 13 13 13 13 13 13 12 11 10 9 9 9 9 9 9 9 10 9 9 8 8 7 6 6 6 6 6 7 7 6 6 6 6
22 21 21 19 18 16 15 15 16 17 18 20 22 24 25 25 25 24 24 26 25 22 19 18 15 12 10 11 13 17 22 25 27 26 23 19 16 16 22 24 23 21 18 16 12 10 9 10 11 11 12 13 13 13 14 14 14 14 14 13 12 10 10 10 10 10 10 10 10 10 9 9 8 8 7 7 6 6 6 6 7 7 7 7 6 5
20 20 19 18 17 16 16 16 16 17 18 19 21 23 24 25 25 25 26 27 26 23 20 18 16 15 13 12 10 10 13 21 26 28 24 19 16 17 22 23 23 22 20 16 10 6 7 9 10 11 12 13 13 14 14 14 14 14 14 14 13 12 11 10 10 10 10 10 10 10 9 9 8 8 7 7 7 6 7 7 8 9 9 7 6 5
20 19 18 18 17 16 16 17 17 17 18 19 21 22 24 24 24 24 25 27 27 24 21 18 17 17 17 12 6 4 7 19 27 29 26 20 17 19 24 23 23 23 23 18 10 4 4 8 11 12 12 13 13 13 14 14 13 13 13 14 14 13 12 11 11 11 11 11 10 10 10 9 9 9 8 8 7 7 7 8 9 9 9 8 7 6
20 20 19 19 18 18 18 18 19 19 20 21 22 23 24 24 24 24 25 27 27 26 23 21 20 21 20 16 11 7 9 21 29 31 28 22 19 21 24 24 23 24 23 20 14 8 4 7 12 14 14 13 13 13 13 13 13 12 13 14 14 14 12 12 12 12 12 11 11 11 10 10 10 10 9 8 8 7 7 8 9 9 9 9 8 7
20 20 20 20 20 20 21 21 21 22 22 23 23 23 24 23 23 23 23 25 27 27 25 24 23 21 20 19 16 13 13 21 29 33 31 25 21 21 24 24 24 24 23 20 15 10 6 7 11 14 15 15 14 13 13 12 12 13 13 14 15 15 14 14 14 14 14 14 13 12 12 12 11 11 10 9 8 7 7 7 8 8 9 9 9 8
20 21 21 21 22 22 23 23 23 24 24 24 24 23 23 22 21 21 21 23 25 26 26 25 25 23 20 18 15 13 13 19 27 33 33 28 23 22 25 25 25 24 23 19 14 9 6 9 12 12 13 15 15 13 13 12 13 13 14 15 16 16 16 16 17 17 16 16 15 14 13 13 12 11 10 8 7 7 6 6 6 7 8 8 9 9
21 21 22 22 23 23 23 24 24 24 24 24 23 23 22 21 20 20 20 21 22 23 24 24 25 25 23 20 17 15 15 19 25 32 34 31 26 24 26 26 26 25 23 19 15 10 8 11 13 14 12 13 14 14 13 13 14 15 16 16 17 17 18 18 18 18 17 16 16 15 14 12 11 11 10 9 8 7 6 6 6 6 7 8 8 9
21 21 21 22 23 23 23 24 24 24 24 23 23 22 22 21 20 20 20 21 21 22 22 22 23 24 24 23 22 21 20 20 24 30 34 33 30 27 25 25 26 26 23 20 17 14 12 12 14 15 14 12 11 12 14 15 15 16 17 17 17 17 18 18 18 18 17 16 16 15 14 13 12 11 10 10 9 8 8 7 7 7 7 8 8 9
20 20 21 22 23 24 24 24 23 23 23 23 22 22 21 21 21 21 21 21 21 21 21 20 20 20 21 21 21 21 20 19 22 28 33 34 32 29 26 25 26 27 25 22 19 17 15 13 13 13 13 12 11 12 15 17 18 18 18 17 17 18 18 18 18 18 17 16 15 14 14 13 12 12 11 11 11 10 9 9 8 8 8 8 9 9
20 20 21 22 23 24 23 23 23 23 23 23 23 22 22 21 21 21 20 20 21 21 20 20 19 19 19 18 17 16 16 17 20 26 32 34 32 29 27 26 26 27 26 25 23 20 18 15 12 10 10 11 11 13 17 19 20 19 19 18 18 18 18 18 18 18 17 16 15 14 13 13 12 12 12 12 12 11 11 10 9 9 9 9 10 10
20 20 21 22 22 23 23 23 23 23 23 23 23 23 22 21 21 20 20 20 20 20 20 19 19 18 17 16 14 13 14 16 20 25 29 32 31 29 27 25 25 26 25 25 23 22 20 17 14 12 11 11 12 14 18 20 21 21 20 19 18 18 18 18 18 18 17 16 15 14 13 12 12 12 12 12 12 12 11 10 9 9 10 10 11 11
20 20 21 21 22 23 23 23 23 24 24 24 24 23 23 22 21 21 20 20 20 20 20 19 19 18 17 16 14 13 14 17 20 24 27 30 30 28 26 24 23 24 24 24 22 21 20 18 17 16 16 14 14 15 17 20 22 22 21 18 17 17 19 19 18 18 17 17 16 14 13 13 13 13 13 13 13 13 12 11 11 10 10 10 10 11
21 21 21 21 22 22 22 23 24 25 25 24 24 23 23 23 22 22 21 20 20 20 19 19 19 18 17 16 15 14 16 18 21 23 26 27 28 27 24 22 21 22 23 23 22 20 19 18 17 16 16 16 16 16 17 19 21 22 22 19 18 18 19 19 19 18 18 17 17 16 15 15 15 15 15 15 15 14 13 13 12 11 10 10 10 10
21 21 21 21 22 23 23 24 24 25 25 24 24 24 24 24 24 23 23 22 21 20 19 19 19 18 18 16 16 16 17 18 20 22 23 24 25 24 22 20 20 20 22 23 21 19 18 17 16 16 16 16 16 16 16 17 19 20 21 21 20 18 16 18 19 19 19 18 18 17 17 17 17 16 16 16 15 15 14 13 12 11 10 10 9 10
21 21 22 23 24 24 25 25 25 25 25 25 25 25 25 25 25 25 24 23 22 21 20 20 19 19 19 19 18 18 18 18 20 20 21 21 21 21 20 19 19 20 21 22 21 19 17 16 15 14 15 15 16 16 17 17 17 18 19 20 20 16 9 12 17 19 19 18 18 17 17 17 16 16 15 15 15 14 13 12 11 10 10 10 9 9
21 22 23 24 25 26 26 26 25 25 25 25 25 25 25 25 25 25 24 23 23 22 21 20 20 20 20 19 19 19 19 19 19 20 20 19 19 18 18 18 18 19 21 21 21 20 18 16 14 13 13 14 15 16 17 17 18 17 17 18 18 17 13 11 12 15 16 16 16 15 15 14 13 13 13 13 13 13 12 11 10 9 9 9 9 9
22 23 24 25 26 26 25 25 26 26 25 25 25 25 25 25 24 24 24 24 23 22 22 21 20 19 18 18 19 20 20 19 19 19 19 18 18 18 17 17 18 19 19 20 20 20 19 17 16 14 14 13 13 14 16 17 18 17 17 16 16 16 14 10 9 11 12 12 12 12 11 11 11 11 12 12 12 12 11 10 9 9 8 8 8 8
24 24 25 26 26 25 25 25 25 25 24 23 24 25 25 24 24 23 24 24 23 23 22 21 20 18 16 17 18 19 20 19 19 19 18 18 17 17 17 17 18 18 18 18 17 17 18 17 17 16 15 14 13 13 14 16 17 18 17 17 16 15 13 11 9 9 9 9 9 9 9 10 10 11 11 12 11 11 10 10 9 9 8 8 8 8
25 25 25 25 25 24 24 24 24 23 22 22 23 24 24 24 24 24 23 23 23 22 21 20 19 18 18 18 19 19 19 19 20 19 19 18 17 17 17 17 18 19 18 17 17 16 16 16 16 16 16 15 15 14 14 14 15 16 17 17 17 16 14 12 11 10 9 8 8 8 9 10 10 11 11 11 11 10 10 10 9 8 8 8 7 7
25 25 25 25 24 23 22 23 23 22 22 22 22 23 24 24 24 24 23 23 23 22 20 19 18 18 19 19 20 21 21 20 21 21 20 19 18 17 17 17 18 19 19 18 17 16 16 15 15 15 16 15 15 16 16 15 14 15 15 16 17 17 16 14 12 11 10 9 9 9 9 10 10 10 10 10 11 11 10 10 9 8 7 7 6 6
25 26 25 24 23 22 22 22 22 22 22 22 22 22 23 23 23 23 23 23 22 21 20 19 18 18 18 18 19 20 21 21 21 21 21 20 19 18 18 18 18 18 17 17 16 16 16 15 15 15 15 15 16 17 17 16 15 14 14 14 15 16 16 15 13 12 11 10 10 10 10 9 9 8 8 10 11 11 10 9 9 8 7 6 5 5
24 25 24 24 23 22 22 22 22 22 22 22 22 23 22 22 22 22 23 23 22 21 20 20 19 18 18 18 19 19 20 20 20 20 21 20 20 19 19 19 18 18 17 16 14 14 13 13 13 14 15 15 15 15 17 17 16 15 14 14 14 14 14 14 14 13 12 12 11 11 10 10 9 8 8 9 10 10 10 9 8 7 7 6 5 5
23 23 23 23 22 22 22 22 22 22 22 22 23 23 23 22 21 21 22 22 21 20 20 20 19 19 18 18 18 19 20 20 20 20 21 21 21 20 19 19 19 18 16 14 12 11 10 9 8 9 13 14 14 14 15 16 17 17 16 15 14 14 13 13 13 13 13 13 12 12 12 11 11 10 10 10 10 10 10 10 9 8 7 6 5 5
Wind_Direction
245 245 245 245 244 244 248 252 251 247 244 245 243 242 240 236 228 222 218 214 213 212 214 215 213 210 208 208 209 210 212 212 212 211 211 213 215 216 216 213 208 202 196 189 182 177 173 171 171 173 175 176 176 175 171 167 162 159 159 157 157 157 157 155 154 153 154 158 164 172 180 189 195 197 197 195 194 195 197 203 206 202 189 171 146 117
245 245 244 246 245 244 246 250 250 247 243 242 241 239 236 231 225 219 215 212 211 211 212 213 211 208 205 204 205 206 208 208 209 209 211 214 215 214 210 205 200 195 189 185 181 178 174 173 173 173 171 169 166 162 159 156 153 151 149 146 145 145 146 146 146 146 147 151 158 168 179 189 195 196 195 194 195 197 202 209 210 205 193 177 158 134
245 242 241 243 243 241 242 244 245 244 242 240 240 239 235 228 221 216 212 210 209 210 211 212 211 207 203 201 201 202 203 205 206 208 210 211 210 207 203 199 194 190 186 183 180 177 175 174 173 172 170 168 166 162 159 157 155 152 151 149 148 148 149 150 151 152 155 159 166 174 182 188 192 193 193 194 196 201 208 215 216 209 198 185 172 157
243 237 236 239 239 239 238 238 237 236 235 235 235 234 229 222 217 214 211 208 207 208 209 211 210 207 202 199 198 198 200 202 205 207 207 206 203 200 197 193 190 188 186 183 181 178 176 176 175 173 172 171 168 166 164 162 161 159 158 157 156 157 158 161 164 167 170 175 180 185 189 193 195 196 197 198 201 206 214 220 221 216 207 195 184 173
242 236 234 233 231 231 234 233 230 228 226 225 222 219 216 215 214 213 210 207 206 206 206 207 207 205 202 199 196 195 196 199 202 204 203 199 195 192 190 189 189 189 188 185 183 181 180 179 178 177 176 175 173 172 172 172 171 170 169 169 169 171 173 176 179 183 187 192 195 199 202 205 208 209 210 212 213 216 220 225 226 224 217 206 195 187
243 238 233 227 222 221 223 224 222 220 217 214 212 209 208 210 211 210 207 205 204 203 201 201 202 202 201 198 195 193 193 195 198 198 196 192 188 186 186 187 189 190 189 187 185 185 184 184 182 181 180 180 180 180 180 180 181 181 181 182 184 187 191 194 197 200 204 208 211 215 219 223 226 228 229 230 229 228 228 229 230 229 224 215 205 197
244 235 226 219 216 215 214 214 216 215 210 206 204 204 204 206 206 206 204 203 202 200 197 196 195 196 196 195 193 190 189 190 192 192 190 187 184 183 184 185 187 189 189 188 187 187 187 186 185 184 184 184 185 186 187 188 189 191 193 196 199 204 207 211 215 219 222 226 229 233 237 240 243 244 245 244 242 239 236 233 230 228 226 221 212 204
236 225 215 209 208 209 207 207 209 211 210 204 200 198 199 200 201 202 202 201 199 196 193 190 188 188 189 189 188 186 185 186 186 185 183 179 178 179 181 183 185 186 187 187 187 187 186 185 185 185 186 187 188 191 193 195 198 201 205 211 216 221 224 228 232 235 239 243 246 248 251 252 253 253 252 250 248 244 239 232 226 222 221 220 214 207
230 216 209 206 204 202 198 201 204 206 207 206 201 196 192 192 195 197 197 195 193 191 188 183 180 180 181 183 184 184 184 184 183 180 176 172 171 173 176 179 183 184 185 184 184 184 184 184 184 185 186 188 191 195 200 204 208 213 219 225 230 234 238 241 244 247 249 252 254 256 257 257 257 255 254 251 248 244 237 229 220 213 209 208 205 201
230 217 208 207 207 204 196 195 198 201 202 203 203 201 195 189 187 186 187 187 187 186 183 180 176 174 175 177 179 181 181 181 180 177 174 171 170 171 173 177 181 183 183 182 182 182 182 182 182 183 185 188 193 200 206 212 217 222 228 233 238 241 244 247 249 251 252 253 254 255 256 256 255 253 251 248 244 239 231 222 212 204 198 193 190 188
224 215 207 203 204 205 202 198 196 196 196 197 199 200 199 195 188 182 178 179 181 180 177 176 174 172 171 172 175 177 176 174 172 171 171 171 171 171 174 177 182 183 183 183 183 184 183 181 181 182 185 190 197 203 208 213 219 226 232 237 241 245 247 248 249 249 248 247 246 246 246 246 246 246 244 241 236 229 221 212 204 197 190 183 177 174
213 208 204 200 198 198 199 197 194 192 189 188 189 192 197 197 195 189 182 179 178 176 173 172 172 171 170 171 172 174 174 172 170 169 169 170 171 173 176 180 183 184 183 183 185 186 185 183 182 184 188 194 200 204 208 213 222 232 240 245 248 249 249 248 245 241 236 230 226 222 220 220 223 229 231 229 223 216 208 202 197 192 186 179 170 164
209 204 200 197 195 192 190 186 183 183 184 185 187 190 195 197 196 193 189 185 181 178 175 172 170 170 171 172 172 173 174 173 172 172 171 171 173 176 179 182 183 183 183 183 184 185 185 184 186 189 195 200 205 210 214 224 238 250 258 262 260 257 252 245 237 228 218 209 202 196 192 187 185 187 196 202 202 199 195 193 190 187 182 175 166 158
203 197 192 191 193 192 189 183 179 181 187 192 196 197 197 196 193 191 188 185 184 181 178 174 171 170 171 172 174 175 175 175 175 174 174 174 175 178 181 183 184 184 185 183 182 183 184 185 188 193 200 206 213 221 231 243 257 266 272 273 268 260 248 237 224 211 201 193 187 183 177 170 161 155 155 161 168 175 179 182 182 181 177 171 164 157
197 190 188 192 195 195 192 188 187 190 195 197 199 199 197 193 190 187 184 181 181 181 179 176 174 173 173 174 175 177 178 178 177 175 176 177 178 180 182 183 184 185 187 185 183 183 185 188 192 197 205 212 221 232 245 256 266 272 276 273 263 246 229 218 208 200 191 186 181 177 171 162 154 146 144 145 150 156 163 168 171 173 172 169 164 158
199 192 194 198 201 200 198 195 194 196 197 198 196 193 189 187 186 186 184 180 177 176 174 172 173 178 183 182 180 179 180 180 179 177 177 178 180 181 183 183 183 184 187 187 186 186 189 192 198 203 210 218 228 240 252 263 270 274 274 266 245 220 205 201 199 195 188 182 178 174 168 161 153 145 141 143 147 152 156 159 162 165 168 168 167 164
205 201 203 206 206 205 203 199 199 199 198 195 194 192 190 188 187 186 184 181 177 176 177 177 177 181 191 191 186 183 183 181 180 180 179 178 179 182 184 184 184 184 186 188 189 191 192 196 201 208 214 222 233 244 255 263 269 272 268 251 221 200 194 196 198 196 188 182 176 171 167 161 154 149 145 147 150 153 155 156 158 161 164 166 168 168
210 207 207 209 210 208 203 199 199 200 198 194 193 193 193 192 190 187 185 182 180 180 184 185 187 188 187 193 191 188 185 182 180 179 178 178 179 182 185 186 187 187 188 188 191 194 197 200 204 210 216 225 236 246 255 261 264 263 255 230 203 192 193 198 200 197 189 182 176 172 167 163 158 154 152 153 155 157 159 158 159 161 163 166 169 170
215 211 210 212 213 211 204 200 198 197 196 193 191 190 190 191 190 189 187 186 186 186 187 190 194 196 194 195 193 190 186 183 181 178 177 178 180 182 184 185 187 188 188 189 191 195 198 202 207 212 218 227 238 247 254 257 257 252 237 210 193 191 196 199 199 196 190 182 176 171 167 164 162 160 160 161 162 164 165 165 165 166 166 168 170 171
217 215 213 213 213 211 206 203 202 200 198 197 193 190 189 189 190 190 191 191 192 192 192 194 197 199 199 197 194 191 188 185 181 178 178 179 180 182 184 185 186 186 187 188 191 195 198 202 207 212 219 229 239 247 252 253 248 238 218 198 190 191 195 196 195 193 190 183 175 169 166 165 165 165 166 166 166 168 170 170 171 172 172 172 172 173
220 220 219 216 213 211 209 209 208 207 204 200 195 191 190 189 190 192 193 193 193 194 196 198 201 202 202 199 195 192 189 186 181 176 177 179 182 184 185 187 187 187 186 188 191 194 198 202 207 213 220 229 239 245 249 246 238 223 204 192 190 191 193 192 191 191 191 182 173 167 165 166 167 168 168 168 167 167 167 169 172 174 176 177 177 176
222 224 223 219 215 214 214 214 212 210 207 201 195 192 192 190 190 192 194 193 193 194 196 199 201 202 202 200 197 194 192 190 185 179 175 174 182 187 187 188 189 189 189 190 192 194 198 203 209 215 222 230 238 243 243 238 226 210 196 190 190 192 192 190 192 195 192 180 170 165 166 168 169 170 171 171 171 170 170 170 171 173 176 177 178 179
223 226 226 222 219 218 217 217 214 212 209 205 202 199 199 196 194 194 194 193 192 192 193 194 195 196 198 197 195 192 191 191 190 186 177 174 183 190 188 189 190 190 192 194 195 196 200 204 209 216 222 230 236 239 237 228 215 201 193 190 190 190 189 190 194 196 192 177 168 165 168 169 171 174 176 177 178 178 177 176 174 174 175 175 176 176
228 229 229 226 222 219 218 217 214 211 209 208 207 207 205 203 201 199 196 194 192 191 191 190 188 187 189 189 187 186 187 189 191 189 183 181 185 189 189 189 188 189 194 197 198 200 203 207 211 216 222 228 233 233 229 219 207 198 192 190 190 189 188 190 195 197 189 175 168 168 171 172 175 179 182 185 187 187 187 185 183 181 179 178 177 176
233 232 231 229 225 220 217 216 214 211 208 206 206 205 203 201 199 197 195 192 190 188 185 179 172 168 174 178 179 182 186 188 189 189 186 182 181 185 189 190 188 186 189 196 199 202 205 208 213 218 222 226 228 226 220 211 202 195 191 189 188 187 187 190 195 194 184 173 170 171 173 175 179 184 189 193 195 197 197 196 195 192 190 187 183 181
236 234 232 230 226 222 217 215 213 211 207 204 202 200 198 195 193 190 186 185 183 180 174 167 164 166 170 173 177 181 185 187 188 189 187 179 172 177 187 190 189 186 185 190 196 200 205 209 214 219 222 223 223 220 213 206 200 195 191 188 186 185 185 188 191 190 180 173 172 173 175 177 181 187 192 196 198 199 200 202 203 203 202 199 193 189
234 232 230 229 226 221 216 212 210 208 205 203 201 199 197 192 187 181 177 179 179 177 172 172 173 172 172 176 181 184 184 184 186 189 190 183 171 170 182 188 189 186 183 185 190 197 204 210 216 220 220 220 218 214 209 204 199 195 191 188 185 184 185 186 188 185 178 175 175 175 176 177 181 184 187 191 193 194 196 200 203 206 205 199 190 183
228 227 226 226 224 219 213 209 206 203 201 200 200 200 198 192 184 178 179 182 181 179 179 181 178 170 173 180 186 186 185 184 184 187 190 187 175 170 179 183 186 185 179 177 181 190 200 210 216 219 217 216 213 210 206 203 201 198 194 190 185 184 185 186 185 182 179 177 177 177 178 179 179 180 181 182 183 184 186 190 191 190 184 174 165 159
222 221 221 221 219 214 209 205 201 200 199 199 200 201 200 197 192 188 188 187 183 181 185 186 183 176 171 172 177 183 187 186 185 186 189 184 175 173 178 178 180 180 175 166 165 175 189 203 210 212 212 211 208 205 203 203 202 200 197 193 189 186 188 188 186 184 181 180 180 180 180 180 180 181 181 180 178 176 176 175 171 164 156 151 147 145
215 214 214 213 211 207 203 200 198 197 198 199 201 202 203 204 202 199 195 190 185 184 188 188 183 173 161 154 157 175 192 193 189 187 187 179 172 171 173 173 175 178 175 164 153 156 180 192 197 202 206 207 205 203 201 201 201 201 199 196 192 189 189 190 189 186 185 184 183 183 183 182 183 183 184 183 180 177 175 171 165 158 153 150 150 154
209 207 205 202 200 198 197 196 194 194 194 196 199 200 202 204 205 203 199 193 189 188 188 185 178 171 163 155 151 170 198 199 192 187 187 181 174 171 171 170 173 179 181 174 162 142 173 185 189 194 201 204 203 201 199 199 200 200 199 197 192 189 189 191 191 189 187 186 185 184 183 183 184 185 186 186 185 182 179 176 171 166 161 159 159 163
204 201 197 193 190 188 188 189 188 187 187 189 193 196 199 200 202 202 201 197 194 191 188 184 178 175 174 177 181 187 192 197 192 188 188 182 176 175 174 172 173 178 184 185 179 164 155 177 184 189 197 202 203 200 197 196 197 197 196 194 190 187 186 190 191 189 186 184 183 182 183 184 186 188 189 190 189 188 187 185 182 178 173 170 168 168
195 192 189 186 183 181 181 181 180 180 181 183 188 192 195 197 199 201 202 201 198 194 190 186 181 178 181 186 190 191 192 194 192 190 187 183 176 174 176 174 174 176 181 187 186 179 165 165 173 182 192 199 202 201 197 195 194 193 191 189 186 183 183 187 189 188 185 184 183 183 187 190 192 193 195 195 196 197 197 196 194 192 189 184 180 176
184 181 179 177 176 175 175 175 175 175 178 181 185 188 191 192 194 197 200 200 199 197 196 192 187 182 180 184 187 189 192 195 194 191 188 186 180 174 175 175 175 176 178 181 183 180 165 161 163 169 182 193 199 201 198 194 191 188 187 186 184 183 183 186 188 188 188 189 189 190 193 196 198 199 201 203 205 208 210 210 209 207 206 202 197 192
173 172 171 170 170 169 169 170 171 173 176 179 182 184 186 186 188 190 192 194 196 197 199 200 198 193 187 183 182 184 189 195 194 191 189 190 186 179 176 177 178 178 177 178 176 169 153 158 162 164 166 178 189 196 197 192 187 184 184 186 186 187 187 190 191 193 194 196 198 200 202 203 205 207 210 213 216 219 222 224 224 222 220 218 215 211
167 166 166 167 167 166 166 167 169 171 174 177 179 180 181 182 183 185 186 189 191 193 196 200 202 202 200 198 196 195 196 196 193 190 191 193 192 186 178 180 182 182 179 177 176 170 157 153 159 163 161 162 173 186 191 189 185 183 184 187 190 191 193 195 198 199 201 203 205 207 210 211 214 217 220 223 227 229 231 234 235 235 233 231 228 225
166 166 166 167 167 166 166 167 169 170 172 174 176 178 179 180 181 182 184 186 188 190 191 193 195 199 203 208 211 211 208 201 193 190 192 195 196 193 185 184 186 187 183 178 175 169 159 152 153 159 161 161 166 176 183 184 183 183 185 188 191 193 196 199 202 205 207 209 211 213 216 218 221 225 228 231 234 237 238 241 243 244 244 241 237 234
168 168 169 169 169 168 167 167 169 170 172 173 174 176 178 178 179 180 182 184 186 187 187 187 187 189 194 201 209 214 212 201 192 190 192 195 198 198 193 189 189 190 190 185 180 172 162 156 155 160 167 171 173 175 179 180 181 182 184 187 191 194 196 200 203 207 210 212 214 217 220 224 228 232 236 239 242 243 245 247 249 250 250 247 243 238
171 170 170 170 170 170 169 168 169 170 172 173 174 176 177 177 178 178 179 181 182 183 183 182 180 181 183 187 192 196 197 193 189 189 191 195 198 201 200 195 192 192 193 191 186 180 172 167 165 167 167 167 169 175 180 182 182 182 182 185 190 195 199 202 204 208 211 213 215 218 222 228 234 240 244 248 250 251 252 254 257 258 256 252 246 241
174 172 172 172 173 172 171 169 170 171 172 173 174 175 175 175 175 175 176 177 177 178 179 178 177 176 176 176 176 176 180 183 185 188 190 194 198 201 204 202 197 193 191 190 188 186 182 177 174 172 168 164 164 170 177 182 184 183 182 182 187 194 200 203 206 210 213 216 218 220 224 231 238 243 248 253 255 258 260 263 266 265 260 253 245 238
175 174 173 173 173 171 170 170 171 172 172 172 172 172 173 172 171 169 170 171 172 173 174 174 173 171 170 169 168 168 172 177 182 186 190 194 197 201 204 206 203 196 190 188 187 188 188 184 179 175 172 169 168 171 176 182 185 186 185 187 190 196 201 206 210 214 217 221 225 228 232 236 241 245 250 255 259 263 266 268 268 266 260 253 243 235
177 175 173 171 170 169 169 170 171 171 172 172 170 170 171 171 170 167 165 164 165 167 170 170 167 162 159 159 162 165 169 175 180 185 189 193 197 200 202 204 203 197 190 186 185 187 189 188 183 178 175 173 171 170 175 182 187 189 192 193 194 197 204 212 217 220 223 226 230 234 237 240 243 246 250 254 259 263 264 264 263 260 256 250 243 237
177 174 171 169 167 167 168 168 168 168 169 169 168 169 171 172 172 169 166 163 162 163 166 168 166 160 152 150 154 161 166 172 177 181 185 189 193 196 198 198 197 194 189 183 180 181 184 185 183 181 182 182 178 173 171 177 183 189 195 198 195 191 193 209 216 220 224 228 231 234 237 240 243 246 249 251 254 256 257 256 254 251 247 245 243 240
173 169 167 165 165 166 166 165 166 166 167 166 166 167 170 172 172 170 166 163 162 162 163 165 164 158 150 147 149 155 161 166 172 177 180 182 185 188 189 189 190 190 188 183 178 175 175 175 175 176 178 183 183 179 176 176 179 185 192 198 199 197 197 203 208 211 216 221 226 230 233 236 238 241 243 244 246 247 248 248 246 243 240 239 240 241
166 163 162 162 162 162 162 163 165 166 166 166 166 166 168 170 171 169 166 162 160 161 162 163 159 151 143 145 149 152 156 160 165 170 174 177 179 180 181 181 182 184 185 184 182 178 173 170 168 169 171 175 179 180 178 177 178 182 186 192 198 203 209 212 210 207 208 212 216 220 223 226 228 230 233 235 236 238 239 240 240 239 238 238 240 241
163 160 160 161 161 161 162 163 164 164 164 164 164 165 167 168 169 168 167 163 160 159 161 164 160 152 147 149 151 152 153 156 160 164 169 172 175 177 178 178 178 178 179 180 182 183 181 177 173 169 167 167 170 175 179 180 179 180 182 186 191 197 203 210 214 212 210 209 209 211 212 215 219 222 224 226 229 232 235 239 241 241 241 240 240 240
162 160 160 160 161 161 162 163 162 161 161 161 163 164 166 167 167 167 166 164 161 158 159 161 160 157 153 154 154 155 154 154 156 160 164 168 171 173 175 175 175 175 175 175 176 178 181 183 182 179 174 168 165 167 174 180 182 182 183 186 189 193 198 205 211 215 215 212 209 208 209 212 215 218 220 223 226 230 235 239 242 243 243 241 239 237
164 163 162 161 161 160 160 161 161 161 160 160 162 164 165 167 167 165 163 163 161 159 157 158 157 155 155 156 159 159 158 157 157 160 163 165 168 170 171 172 173 174 175 175 176 177 179 182 185 187 187 183 175 171 172 176 181 184 186 188 191 195 199 203 209 214 217 217 215 215 216 216 216 216 218 221 226 231 235 237 238 239 239 239 237 235
166 165 164 162 161 161 161 162 162 161 161 160 161 163 165 167 167 165 163 163 161 160 159 159 157 154 154 158 160 161 161 160 161 162 164 166 168 169 170 171 172 173 174 175 177 179 181 184 188 191 195 196 191 184 179 179 180 182 186 191 195 199 201 203 207 211 216 217 218 220 223 224 224 223 223 222 226 231 235 236 234 232 232 234 235 236
168 167 165 164 163 163 164 164 164 163 162 161 161 162 163 164 166 166 165 164 163 162 162 162 159 157 156 159 161 162 162 162 162 164 167 170 172 171 171 172 172 171 171 172 175 178 181 185 192 197 200 202 201 196 190 186 184 184 186 192 198 202 204 204 206 209 213 214 216 219 222 224 225 225 225 224 226 230 234 234 232 228 226 229 233 235
168 168 167 166 166 165 165 165 165 164 163 162 162 162 162 162 163 164 165 165 164 164 164 164 162 160 159 160 162 164 165 165 165 167 171 174 176 176 175 175 174 172 168 166 167 171 175 179 190 202 206 205 204 202 197 192 189 187 188 193 198 202 204 204 204 206 209 211 214 217 220 221 222 222 222 222 223 225 229 232 231 228 224 226 229 231